Tracking 31027 objects as of 19-Jul-2025
HD Live streaming from Space Station
objects crossing your sky now

STARLINK-3136

Track STARLINK-3136 now!
10-day predictions
STARLINK-3136 is classified as:


NORAD ID: 49443
Int'l Code: 2021-104AM
Perigee: 546.0 km
Apogee: 547.8 km
Inclination: 53.2 °
Period: 95.4 minutes
Semi major axis: 6917 km
RCS: Unknown
Launch date: November 13, 2021
Source: United States (US)
Launch site: AIR FORCE EASTERN TEST RANGE (AFETR)
Your satellite tracking list
KL-BETA B
Track 1 satellite(s)




NASA's NSSDC Master Catalog

Two Line Element Set (TLE):
1 49443U 21104AM  25199.37479232 -.00000278  00000-0  64800-6 0  9997
2 49443  53.2161 181.0003 0001249  61.6424 298.4694 15.08835951203547
Source of the keplerian elements: AFSPC